Location: Unspecified
(0.0000°N, 0.0000°E)
Time: 14:57:23
(UTC+00:00)

NOAA 9 - Visible Passes

Search period start: 23 February 2024 00:00
Search period end: 04 March 2024 00:00
Orbit: 827 x 847 km, 99.1° (Epoch: 22 February)

Date Brightness Start Highest point End Pass type
(mag) Time Alt. Az. Time Alt. Az. Time Alt. Az.
23 Feb 4.9 04:51:28 10° NNE 04:56:51 73° ESE 05:02:13 10° S visible
24 Feb 5.7 04:35:57 10° NNE 04:41:05 47° ESE 04:46:15 10° S visible
25 Feb 6.5 04:20:41 10° NE 04:25:21 30° ESE 04:30:01 10° SSE visible
26 Feb 7.1 04:05:47 10° ENE 04:09:37 20° ESE 04:13:26 10° SSE visible
26 Feb 5.5 05:45:15 10° NNW 05:49:42 27° WNW 05:54:12 10° SW visible
27 Feb 7.7 03:51:40 10° E 03:53:53 13° ESE 03:56:06 10° SE visible
27 Feb 5.0 05:28:56 10° N 05:33:57 41° WNW 05:39:00 10° SSW visible
28 Feb 4.6 05:12:53 10° N 05:18:13 65° WNW 05:23:33 10° SSW visible
29 Feb 4.7 04:57:05 10° NNE 05:02:28 83° ESE 05:07:51 10° S visible
01 Mar 5.4 04:41:29 10° NNE 04:46:43 53° ESE 04:51:56 10° S visible
02 Mar 6.3 04:26:08 10° NE 04:30:58 34° ESE 04:35:47 10° SSE visible
03 Mar 7.0 04:11:06 10° NE 04:15:13 23° ESE 04:19:20 10° SSE visible
